When you browse on this site, cookies collect data to enhance your experience and personalize the content and advertising you see.
Visit our Privacy Policy to learn more. By continuing to use the site, you agree to this use of cookies and data.
  • In Latvia
  • List of Countries
  • For 7 days
  • Water Temperature
  • Satellite Maps
  • Weather Map
  • Weather Widgets
  • user-avatar
    Login

    Hourly Weather Chakhansur

    Today, 23 April, Tuesday

    Time Temperature Precipitation Wind Pressure Humidity
    00:00 +31°C° 0.1 mm 3 mps 714 mmHg 30%
    01:00 +31°C° 0.1 mm 3 mps 714 mmHg 31%
    02:00 +31°C° 0 mm 3 mps 714 mmHg 31%
    03:00 +31°C° 0 mm 3 mps 714 mmHg 30%
    04:00 +31°C° 0 mm 3 mps 714 mmHg 30%
    05:00 +31°C° 0 mm 3 mps 714 mmHg 30%
    06:00 +31°C° 0 mm 3 mps 714 mmHg 30%
    07:00 +31°C° 0 mm 3 mps 715 mmHg 30%
    08:00 +34°C° 0 mm 3 mps 715 mmHg 26%
    09:00 +36°C° 0 mm 3 mps 715 mmHg 22%
    10:00 +38°C° 0 mm 3 mps 715 mmHg 18%
    11:00 +39°C° 0 mm 3 mps 715 mmHg 16%
    12:00 +41°C° 0 mm 4 mps 714 mmHg 14%
    13:00 +42°C° 0 mm 4 mps 714 mmHg 13%
    14:00 +41°C° 0 mm 6 mps 713 mmHg 13%
    15:00 +41°C° 0 mm 8 mps 713 mmHg 13%
    16:00 +42°C° 0 mm 10 mps 712 mmHg 14%
    17:00 +39°C° 0.4 mm 7 mps 712 mmHg 18%
    18:00 +36°C° 0.4 mm 5 mps 712 mmHg 22%
    19:00 +34°C° 0.4 mm 2 mps 712 mmHg 27%
    20:00 +34°C° 0 mm 3 mps 712 mmHg 27%
    21:00 +33°C° 0 mm 5 mps 712 mmHg 28%
    22:00 +33°C° 0 mm 6 mps 712 mmHg 28%
    23:00 +32°C° 0 mm 7 mps 712 mmHg 29%

    Tomorrow, 24 April, Wednesday

    Time Temperature Precipitation Wind Pressure Humidity
    00:00 +30°C° 0 mm 7 mps 712 mmHg 30%
    01:00 +29°C° 0 mm 8 mps 712 mmHg 31%
    02:00 +26°C° 0 mm 9 mps 712 mmHg 35%
    03:00 +23°C° 0 mm 11 mps 713 mmHg 39%
    04:00 +19°C° 0 mm 12 mps 713 mmHg 43%
    05:00 +19°C° 0 mm 12 mps 714 mmHg 41%
    06:00 +19°C° 0 mm 13 mps 715 mmHg 40%
    07:00 +19°C° 0 mm 13 mps 717 mmHg 39%
    08:00 +22°C° 0 mm 13 mps 717 mmHg 36%
    09:00 +23°C° 0 mm 12 mps 718 mmHg 32%
    10:00 +24°C° 0 mm 12 mps 719 mmHg 29%
    11:00 +26°C° 0 mm 12 mps 719 mmHg 26%
    12:00 +26°C° 0 mm 11 mps 719 mmHg 23%
    13:00 +27°C° 0 mm 11 mps 719 mmHg 20%
    14:00 +27°C° 0 mm 11 mps 719 mmHg 19%
    15:00 +28°C° 0 mm 10 mps 718 mmHg 18%
    16:00 +28°C° 0 mm 9 mps 718 mmHg 16%
    17:00 +27°C° 0 mm 9 mps 718 mmHg 18%
    18:00 +26°C° 0 mm 9 mps 718 mmHg 19%
    19:00 +24°C° 0 mm 8 mps 718 mmHg 20%
    20:00 +23°C° 0 mm 9 mps 719 mmHg 21%
    21:00 +22°C° 0 mm 9 mps 719 mmHg 22%
    22:00 +21°C° 0 mm 10 mps 720 mmHg 23%
    23:00 +19°C° 0 mm 10 mps 720 mmHg 25%

    Day after tomorrow, 25 April, Thursday

    Time Temperature Precipitation Wind Pressure Humidity
    00:00 +18°C° 0 mm 11 mps 720 mmHg 26%
    01:00 +17°C° 0 mm 11 mps 720 mmHg 28%
    02:00 +17°C° 0 mm 11 mps 719 mmHg 30%
    03:00 +16°C° 0 mm 11 mps 719 mmHg 32%
    04:00 +14°C° 0 mm 11 mps 719 mmHg 34%
    05:00 +14°C° 0 mm 11 mps 720 mmHg 34%
    06:00 +14°C° 0 mm 11 mps 720 mmHg 34%
    07:00 +14°C° 0 mm 11 mps 721 mmHg 34%
    08:00 +17°C° 0 mm 10 mps 721 mmHg 30%
    09:00 +19°C° 0 mm 10 mps 722 mmHg 27%
    10:00 +21°C° 0 mm 10 mps 722 mmHg 23%
    11:00 +23°C° 0 mm 9 mps 722 mmHg 20%
    12:00 +24°C° 0 mm 9 mps 721 mmHg 18%
    13:00 +26°C° 0 mm 8 mps 721 mmHg 15%
    14:00 +27°C° 0 mm 8 mps 720 mmHg 15%
    15:00 +27°C° 0 mm 7 mps 720 mmHg 14%
    16:00 +27°C° 0 mm 7 mps 720 mmHg 13%
    17:00 +26°C° 0 mm 6 mps 720 mmHg 15%
    18:00 +26°C° 0 mm 6 mps 720 mmHg 16%
    19:00 +24°C° 0 mm 6 mps 720 mmHg 17%
    20:00 +23°C° 0 mm 6 mps 720 mmHg 19%
    21:00 +22°C° 0 mm 6 mps 720 mmHg 21%
    22:00 +22°C° 0 mm 6 mps 721 mmHg 22%
    23:00 +21°C° 0 mm 7 mps 720 mmHg 25%

    26 April, Friday

    Time Temperature Precipitation Wind Pressure Humidity
    00:00 +20°C° 0 mm 7 mps 720 mmHg 28%
    01:00 +18°C° 0 mm 8 mps 719 mmHg 31%
    02:00 +18°C° 0 mm 8 mps 719 mmHg 31%
    03:00 +17°C° 0 mm 8 mps 719 mmHg 32%
    04:00 +17°C° 0 mm 8 mps 719 mmHg 33%
    05:00 +17°C° 0 mm 8 mps 720 mmHg 33%
    06:00 +17°C° 0 mm 8 mps 720 mmHg 32%
    07:00 +17°C° 0 mm 8 mps 721 mmHg 32%
    08:00 +20°C° 0 mm 8 mps 721 mmHg 27%
    09:00 +21°C° 0 mm 8 mps 721 mmHg 23%
    10:00 +23°C° 0 mm 7 mps 722 mmHg 19%
    11:00 +26°C° 0 mm 7 mps 721 mmHg 17%
    12:00 +27°C° 0 mm 7 mps 721 mmHg 15%
    13:00 +28°C° 0 mm 6 mps 720 mmHg 13%
    14:00 +28°C° 0 mm 6 mps 720 mmHg 12%
    15:00 +29°C° 0 mm 6 mps 720 mmHg 12%
    16:00 +29°C° 0 mm 6 mps 719 mmHg 11%
    17:00 +28°C° 0 mm 6 mps 719 mmHg 12%
    18:00 +27°C° 0 mm 6 mps 719 mmHg 13%
    19:00 +27°C° 0 mm 6 mps 719 mmHg 14%
    20:00 +26°C° 0 mm 6 mps 719 mmHg 16%
    21:00 +24°C° 0 mm 7 mps 720 mmHg 17%
    22:00 +23°C° 0 mm 7 mps 720 mmHg 19%
    23:00 +22°C° 0 mm 7 mps 720 mmHg 21%

    27 April, Saturday

    Time Temperature Precipitation Wind Pressure Humidity
    00:00 +21°C° 0 mm 8 mps 719 mmHg 23%
    01:00 +21°C° 0 mm 8 mps 719 mmHg 25%
    02:00 +20°C° 0 mm 8 mps 719 mmHg 27%
    03:00 +20°C° 0 mm 8 mps 719 mmHg 28%
    04:00 +18°C° 0 mm 8 mps 719 mmHg 29%
    05:00 +18°C° 0 mm 8 mps 719 mmHg 29%
    06:00 +18°C° 0 mm 8 mps 720 mmHg 28%
    07:00 +18°C° 0 mm 8 mps 720 mmHg 28%
    08:00 +21°C° 0 mm 8 mps 721 mmHg 24%
    09:00 +23°C° 0 mm 8 mps 721 mmHg 20%
    10:00 +26°C° 0 mm 8 mps 721 mmHg 16%
    11:00 +27°C° 0 mm 8 mps 721 mmHg 15%
    12:00 +28°C° 0 mm 8 mps 720 mmHg 13%
    13:00 +29°C° 0 mm 8 mps 720 mmHg 12%
    14:00 +31°C° 0 mm 8 mps 720 mmHg 12%
    15:00 +31°C° 0 mm 8 mps 719 mmHg 11%
    16:00 +31°C° 0 mm 9 mps 719 mmHg 11%
    17:00 +29°C° 0 mm 8 mps 719 mmHg 12%
    18:00 +28°C° 0 mm 8 mps 719 mmHg 13%
    19:00 +27°C° 0 mm 7 mps 720 mmHg 14%
    20:00 +26°C° 0 mm 8 mps 720 mmHg 15%
    21:00 +24°C° 0 mm 8 mps 720 mmHg 16%
    22:00 +23°C° 0 mm 9 mps 721 mmHg 18%
    23:00 +22°C° 0 mm 9 mps 720 mmHg 20%

    28 April, Sunday

    Time Temperature Precipitation Wind Pressure Humidity
    00:00 +22°C° 0 mm 9 mps 720 mmHg 23%
    01:00 +21°C° 0 mm 9 mps 720 mmHg 25%
    02:00 +19°C° 0 mm 9 mps 720 mmHg 26%
    03:00 +18°C° 0 mm 9 mps 720 mmHg 28%
    04:00 +18°C° 0 mm 9 mps 720 mmHg 29%
    05:00 +18°C° 0 mm 9 mps 720 mmHg 28%
    06:00 +18°C° 0 mm 9 mps 720 mmHg 26%
    07:00 +18°C° 0 mm 9 mps 721 mmHg 25%
    08:00 +21°C° 0 mm 9 mps 721 mmHg 22%
    09:00 +23°C° 0 mm 9 mps 721 mmHg 18%
    10:00 +26°C° 0 mm 9 mps 721 mmHg 14%
    11:00 +27°C° 0 mm 8 mps 721 mmHg 13%
    12:00 +28°C° 0 mm 8 mps 720 mmHg 12%
    13:00 +29°C° 0 mm 7 mps 720 mmHg 10%
    14:00 +29°C° 0 mm 7 mps 719 mmHg 10%
    15:00 +29°C° 0 mm 7 mps 719 mmHg 10%
    16:00 +30°C° 0 mm 7 mps 718 mmHg 10%
    17:00 +29°C° 0 mm 7 mps 718 mmHg 11%
    18:00 +28°C° 0 mm 6 mps 718 mmHg 11%
    19:00 +27°C° 0 mm 6 mps 718 mmHg 12%
    20:00 +26°C° 0 mm 5 mps 718 mmHg 14%
    21:00 +25°C° 0 mm 5 mps 719 mmHg 15%
    22:00 +25°C° 0 mm 5 mps 719 mmHg 17%
    23:00 +23°C° 0 mm 5 mps 718 mmHg 19%
    Show more